#timestamp,LO_Frequency,Hit,StdDev 
1552777215.9,286047002.8,N
1552777235.7,286046999.8,N
1552777255.5,286047000.1,N
1552777275.4,286047000.5,N
1552777295.2,286047001.1,N
1552777315.1,286046996.6,N
1552777316.0,286046996.6,N
1552777335.8,286046996.8,N
1552777355.6,286046997.4,N
1552777375.5,286046995.1,N
1552777395.3,286046997.4,N
1552777415.1,286046996.8,N
1552777435.9,286046996.9,N
1552777455.7,286046999.2,N
1552777475.6,286046998.1,N
1552777495.4,286047000.9,N
1552777515.2,286046998.3,N
1552777535.1,286046998.5,N
1552777536.0,286046998.5,N
1552777555.8,286046998.2,N
1552777575.6,286046999.1,N
1552777595.5,286046998.9,N
1552777615.3,286046997.0,N
1552777635.2,286046997.3,N
1552777655.9,286047001.1,N
1552777675.7,286047002.3,N
1552777695.6,286047002.2,N
1552777715.4,286047002.7,N
1552777735.2,286047002.5,N
1552777755.1,286046999.7,N
1552777756.0,286046999.7,N
1552777775.8,286047000.3,N
1552777795.7,286047000.7,N
1552777815.5,286047000.1,N
1552777835.3,286047000.5,N
1552777855.2,286047000.0,N
1552777875.9,286047001.0,N
1552777895.7,286047000.4,N
1552777915.6,286047000.8,N
1552777935.4,286047000.8,N
1552777955.2,286046999.9,N
1552777975.1,286047002.4,N
1552777976.0,286047002.4,N
1552777995.8,286047002.2,N
1552778015.7,286047001.3,N
1552778035.5,286047001.6,N
1552778055.3,286047004.1,N
1552778075.2,286047003.9,N
1552778095.0,286047004.3,N
1552778095.9,286047004.3,N
1552778115.8,286047001.7,N
1552778135.6,286047003.9,N
1552778155.4,286047001.4,N
1552778175.3,286047001.7,N
1552778195.1,286047002.8,N
1552778215.8,286047002.4,N
1552778235.7,286047000.9,N
1552778255.5,286047000.9,N
1552778275.4,286047000.9,N
1552778295.2,286046998.5,N
1552778315.0,286047001.0,N
1552778315.9,286047001.0,N
1552778335.8,286047000.4,N
1552778355.6,286047002.4,N
1552778375.4,286047002.2,N
1552778395.3,286047001.9,N
1552778415.1,286047002.6,N
1552778435.9,286046999.7,N
1552778455.7,286047002.6,N
1552778475.5,286047002.4,N
1552778495.4,286046999.8,N
1552778515.2,286047002.1,N
1552778535.0,286047001.5,N
1552778536.0,286047001.5,N
1552778555.8,286047002.7,N
1552778575.6,286047001.0,N
1552778595.5,286047001.1,N
1552778615.3,286047000.2,N
1552778635.1,286046999.7,N
1552778655.9,286047001.0,N
1552778675.7,286047002.3,N
1552778695.6,286047002.1,N
1552778715.4,286047002.4,N
1552778735.2,286047001.5,N
1552778755.1,286047002.1,N
1552778756.0,286047002.1,N
1552778775.8,286047001.8,N
1552778795.7,286047001.8,N
1552778815.5,286047003.4,Y
1552778835.3,286047003.7,P
1552778855.2,286047001.5,N
1552778875.0,286047000.1,N
1552778875.9,286047000.1,N
1552778895.7,286046998.4,N
1552778915.6,286046998.6,N
1552778935.4,286047000.3,N
1552778955.3,286047002.5,N
1552778975.1,286047000.4,N
1552778995.8,286047002.3,N
1552779015.7,286047002.8,N
1552779035.5,286046999.9,N
1552779055.3,286047000.2,N
1552779075.2,286047000.3,N
1552779095.0,286047002.8,N
1552779095.9,286047002.8,N
1552779115.8,286047002.7,N
1552779135.6,286047000.1,N
1552779155.4,286047000.9,N
1552779175.3,286047000.1,N
1552779195.1,286047001.4,N
1552779215.9,286047003.8,N
1552779235.7,286047004.3,N
1552779255.5,286047001.5,N
1552779275.4,286047001.4,N
1552779295.2,286047003.9,N
1552779315.0,286047004.4,N
1552779315.9,286047004.4,N
1552779335.8,286047003.0,N
1552779355.6,286047004.7,N
1552779375.5,286047003.0,N
1552779395.3,286047001.8,N
1552779415.1,286047002.1,N
1552779435.9,286047001.8,N
1552779455.7,286047000.1,N
1552779475.5,286047000.4,N
1552779495.4,286047001.5,N
1552779515.2,286047002.5,N
1552779535.1,286047004.2,N
1552779536.0,286047004.2,N
1552779555.8,286047003.4,N
1552779575.6,286047001.9,N
1552779595.5,286047002.3,N
1552779615.3,286046999.9,N
1552779635.1,286047000.3,N
1552779655.9,286046999.8,N
1552779675.7,286047000.4,N
1552779695.6,286047002.8,N
1552779715.4,286047000.5,N
1552779735.2,286047001.6,N
1552779755.1,286047001.5,N
1552779756.0,286047001.5,N
1552779775.8,286047001.7,N
1552779795.0,286047001.3,N
1552779795.9,286047001.3,N
1552779815.7,286047003.1,N
1552779835.6,286047004.2,N
1552779855.7,286047005.5,Y
1552779875.6,286047002.1,P
1552779895.4,286047000.9,P
1552779915.3,286046998.2,P
1552779935.1,286047000.0,N
1552779955.8,286046999.8,N
1552779975.7,286047001.1,N
1552779995.5,286046998.7,N
1552780015.2,286046998.9,N
1552780035.9,286046998.1,N
1552780055.7,286046999.7,N
1552780075.6,286047000.3,N
1552780095.4,286047001.0,N
1552780115.2,286047001.0,N
1552780135.1,286047000.8,N
1552780136.0,286047000.8,N
1552780155.8,286047000.0,N
1552780175.7,286046999.8,N
1552780195.5,286047001.6,N
1552780215.3,286046999.9,N
1552780235.2,286047000.3,N
1552780255.0,286047002.8,N
1552780255.9,286047002.8,N
1552780275.8,286047002.5,N
1552780295.6,286047001.8,N
1552780315.4,286047001.4,N
1552780335.3,286047004.2,Y
1552780355.1,286047002.8,P
1552780375.9,286047002.4,N
1552780395.7,286047000.4,N
1552780415.5,286047002.8,N
1552780435.4,286047000.0,N
1552780455.2,286047004.4,Y
1552780475.0,286047001.3,P
1552780475.9,286047001.3,P
1552780495.8,286047004.3,P
1552780515.6,286047002.6,N
1552780535.5,286046999.9,N
1552780555.3,286047000.4,N
1552780575.1,286047000.1,N
1552780595.9,286047000.1,N
1552780615.7,286047001.2,N
1552780635.5,286047000.2,N
1552780655.4,286047002.6,N
1552780675.2,286046999.8,N
1552780695.1,286046998.2,N
1552780696.0,286046998.2,N
1552780715.8,286047001.2,N
1552780735.6,286047004.2,N
1552780755.5,286047003.1,N
1552780775.3,286047003.5,N
1552780795.2,286047004.2,N
